Weather History for KLJF - July, 2012

Change the Weather History Date:

Monday, July 23, 2012

  Actual Average Record
Temperature  
Mean Temperature 84 °F -  
Max Temperature 95 °F 82 °F 95 °F (1964)
Min Temperature 73 °F 60 °F 49 °F (1948)
Cooling Degree Days 19    
Growing Degree Days 34 (Base 50)    
Moisture  
Dew Point 69 °F    
Average Humidity 71    
Maximum Humidity 100    
Minimum Humidity 36    
Precipitation  
Precipitation 0.00 in - - ()
Sea Level Pressure  
Sea Level Pressure 29.96 in    
Wind  
Wind Speed 3 mph (North)    
Max Wind Speed 9 mph    
Max Gust Speed -    
Visibility 10 miles    
Events Rain , Thunderstorm    
Averages and records for this station are not official NWS values.
T = Trace of Precipitation, MM = Missing Value Source: NWS Daily Summary

Daily Weather History Graph

Daily Weather History Graph

Search for Another Location

Airport or City:

Trip Planner

Search our weather history database for the weather conditions in past years. The results will help you decide how hot, cold, wet, or windy it might be!

Date:

Astronomy

Jul. 23, 2012 Rise Set
Actual Time 5:53 AM CDT 8:54 PM CDT
Civil Twilight 5:18 AM CDT 9:29 PM CDT
Nautical Twilight 4:33 AM CDT 10:14 PM CDT
Astronomical Twilight 3:40 AM CDT 11:07 PM CDT
Moon 11:02 AM CDT (7/23) 10:51 PM CDT (7/23)
Length of Visible Light 16h 10m
Length of Day
15h 00m
Waxing Crescent, 22% of the Moon is Illuminated
Jul 23
Waxing Crescent
Jul 26
First Quarter
Aug 1
Full
Aug 9
Last Quarter
Aug 17
New

Hourly Weather History & Observations

Time (CDT) Temp. Heat Index Dew Point Humidity Pressure Visibility Wind Dir Wind Speed Gust Speed Precip Events Conditions
12:14 AM 77.0 °F - 73.4 °F 89% 29.91 in 10.0 mi WSW 3.5 mph - N/A   Clear
12:33 AM 77.0 °F - 73.4 °F 89% 29.91 in 10.0 mi Calm Calm - N/A   Clear
12:53 AM 75.2 °F - 73.4 °F 94% 29.92 in 10.0 mi Calm Calm - N/A   Clear
1:13 AM 75.2 °F - 73.4 °F 94% 29.92 in 10.0 mi Calm Calm - N/A   Clear
1:33 AM 75.2 °F - 71.6 °F 89% 29.91 in 10.0 mi Calm Calm - N/A   Clear
1:53 AM 73.4 °F - 71.6 °F 94% 29.91 in 10.0 mi Calm Calm - N/A   Clear
2:13 AM 73.4 °F - 71.6 °F 94% 29.93 in 10.0 mi Calm Calm - N/A   Clear
2:33 AM 73.4 °F - 71.6 °F 94% 29.94 in 10.0 mi Calm Calm - N/A   Clear
2:53 AM 73.4 °F - 71.6 °F 94% 29.94 in 10.0 mi Calm Calm - N/A   Clear
3:13 AM 73.4 °F - 73.4 °F 100% 29.95 in 10.0 mi West 3.5 mph - N/A   Clear
3:33 AM 75.2 °F - 73.4 °F 94% 29.95 in 10.0 mi WNW 6.9 mph - N/A   Clear
3:53 AM 75.2 °F - 75.2 °F 100% 29.96 in 10.0 mi WNW 4.6 mph - N/A   Clear
4:13 AM 75.2 °F - 73.4 °F 94% 29.96 in 10.0 mi WNW 5.8 mph - N/A   Clear
4:33 AM 75.2 °F - 73.4 °F 94% 29.97 in 10.0 mi West 5.8 mph - N/A   Clear
4:54 AM 75.2 °F - 73.4 °F 94% 29.95 in 10.0 mi NNW 3.5 mph - N/A   Clear
5:13 AM 73.4 °F - 71.6 °F 94% 29.96 in 7.0 mi NW 3.5 mph - N/A   Clear
5:33 AM 73.4 °F - 73.4 °F 100% 29.96 in 7.0 mi NW 5.8 mph - N/A   Clear
5:53 AM 73.4 °F - 71.6 °F 94% 29.97 in 7.0 mi WNW 4.6 mph - N/A   Clear
6:13 AM 73.4 °F - 73.4 °F 100% 29.97 in 10.0 mi Calm Calm - N/A   Clear
6:33 AM 73.4 °F - 73.4 °F 100% 29.97 in 7.0 mi Calm Calm - N/A   Clear
6:54 AM 75.2 °F - 75.2 °F 100% 29.97 in 10.0 mi Calm Calm - N/A   Clear
7:13 AM 77.0 °F - 75.2 °F 94% 29.97 in 10.0 mi NNW 3.5 mph - N/A   Clear
7:33 AM 75.2 °F - 73.4 °F 94% 29.97 in 10.0 mi North 6.9 mph - N/A   Clear
7:53 AM 78.8 °F - 73.4 °F 83% 29.97 in 10.0 mi North 4.6 mph - N/A   Clear
8:13 AM 80.6 °F 85.4 °F 73.4 °F 79% 29.96 in 10.0 mi North 8.1 mph - N/A   Clear
8:33 AM 78.8 °F - 69.8 °F 74% 29.96 in 10.0 mi North 8.1 mph - N/A   Clear
8:53 AM 80.6 °F 83.9 °F 69.8 °F 70% 29.96 in 10.0 mi North 6.9 mph - N/A   Clear
9:13 AM 82.4 °F 89.5 °F 75.2 °F 79% 29.95 in 10.0 mi NNE 5.8 mph - N/A   Clear
9:33 AM 84.2 °F 94.1 °F 77.0 °F 79% 29.95 in 10.0 mi Calm Calm - N/A   Clear
9:53 AM 87.8 °F 104.9 °F 80.6 °F 79% 29.95 in 10.0 mi North 3.5 mph - N/A   Clear
10:14 AM 89.6 °F 111.1 °F 82.4 °F 79% 29.96 in 10.0 mi Calm Calm - N/A   Clear
10:33 AM 89.6 °F 104.7 °F 78.8 °F 70% 29.95 in 10.0 mi Calm Calm - N/A   Clear
10:53 AM 87.8 °F 89.4 °F 64.4 °F 46% 29.95 in 10.0 mi ENE 5.8 mph - N/A   Clear
11:14 AM 89.6 °F 92.2 °F 66.2 °F 46% 29.96 in 10.0 mi East 3.5 mph - N/A   Clear
11:33 AM 89.6 °F 90.1 °F 62.6 °F 40% 29.95 in 10.0 mi NE 6.9 mph - N/A   Clear
11:53 AM 89.6 °F 89.5 °F 60.8 °F 38% 29.96 in 10.0 mi ENE 4.6 mph - N/A   Clear
12:13 PM 89.6 °F 91.1 °F 64.4 °F 43% 29.95 in 10.0 mi ENE 4.6 mph - N/A   Clear
12:33 PM 91.4 °F 93.2 °F 64.4 °F 41% 29.95 in 10.0 mi NE 4.6 mph - N/A   Clear
12:53 PM 91.4 °F 93.2 °F 64.4 °F 41% 29.95 in 10.0 mi East 4.6 mph - N/A   Clear
1:13 PM 91.4 °F 93.2 °F 64.4 °F 41% 29.96 in 10.0 mi East 3.5 mph - N/A   Clear
1:33 PM 93.2 °F 96.2 °F 66.2 °F 41% 29.95 in 10.0 mi ESE 3.5 mph - N/A   Clear
1:53 PM 93.2 °F 94.9 °F 64.4 °F 38% 29.95 in 10.0 mi ESE 3.5 mph - N/A   Clear
2:13 PM 93.2 °F 96.2 °F 66.2 °F 41% 29.96 in 10.0 mi Calm Calm - N/A   Clear
2:33 PM 93.2 °F 94.9 °F 64.4 °F 38% 29.96 in 10.0 mi West 5.8 mph - N/A   Clear
2:53 PM 95.0 °F 97.0 °F 64.4 °F 36% 29.96 in 10.0 mi Calm Calm - N/A   Clear
3:13 PM 93.2 °F 94.1 °F 62.6 °F 36% 29.95 in 10.0 mi West 3.5 mph - N/A   Clear
3:33 PM 91.4 °F 92.1 °F 62.6 °F 38% 29.96 in 10.0 mi West 4.6 mph - N/A   Clear
3:53 PM 91.4 °F 93.2 °F 64.4 °F 41% 29.96 in 10.0 mi WSW 3.5 mph - N/A   Clear
4:13 PM 87.8 °F 89.4 °F 64.4 °F 46% 29.96 in 10.0 mi Calm Calm - N/A   Clear
4:33 PM 84.2 °F 86.6 °F 66.2 °F 55% 29.96 in 10.0 mi Calm Calm - N/A   Clear
4:53 PM 84.2 °F 86.6 °F 66.2 °F 55% 29.95 in 10.0 mi NNE 4.6 mph - N/A   Clear
5:13 PM 84.2 °F 86.6 °F 66.2 °F 55% 29.96 in 10.0 mi North 4.6 mph - N/A   Clear
5:33 PM 84.2 °F 86.6 °F 66.2 °F 55% 29.96 in 10.0 mi North 4.6 mph - N/A   Scattered Clouds
5:53 PM 82.4 °F 84.6 °F 66.2 °F 58% 29.96 in 10.0 mi North 5.8 mph - N/A   Clear
6:13 PM 80.6 °F 83.9 °F 69.8 °F 70% 29.99 in 10.0 mi NNW 5.8 mph - N/A Rain Light Rain
6:33 PM 80.6 °F 83.9 °F 69.8 °F 70% 29.99 in 10.0 mi NNW 4.6 mph - N/A   Scattered Clouds
6:53 PM 80.6 °F 83.2 °F 68.0 °F 65% 29.98 in 10.0 mi North 4.6 mph - N/A   Clear
7:13 PM 80.6 °F 83.9 °F 69.8 °F 70% 29.97 in 10.0 mi North 5.8 mph - N/A   Clear
7:33 PM 80.6 °F 83.9 °F 69.8 °F 70% 29.96 in 10.0 mi NNE 9.2 mph - N/A   Clear
7:53 PM 80.6 °F 83.2 °F 68.0 °F 65% 29.97 in 10.0 mi NNE 9.2 mph - N/A   Clear
8:13 PM 80.6 °F 82.7 °F 66.2 °F 61% 29.97 in 10.0 mi NE 6.9 mph - N/A   Clear
8:33 PM 78.8 °F - 66.2 °F 65% 29.96 in 10.0 mi ENE 5.8 mph - N/A   Clear
8:53 PM 78.8 °F - 66.2 °F 65% 29.96 in 10.0 mi East 4.6 mph - N/A   Clear
9:13 PM 77.0 °F - 66.2 °F 69% 29.96 in 10.0 mi ESE 4.6 mph - N/A   Clear
9:33 PM 75.2 °F - 66.2 °F 73% 29.95 in 10.0 mi East 4.6 mph - N/A   Clear
9:53 PM 75.2 °F - 66.2 °F 73% 29.94 in 10.0 mi East 5.8 mph - N/A   Scattered Clouds
10:13 PM 75.2 °F - 66.2 °F 73% 29.96 in 10.0 mi Calm Calm - N/A Thunderstorm Mostly Cloudy
10:33 PM 75.2 °F - 66.2 °F 73% 29.96 in 10.0 mi South 3.5 mph - N/A Rain , Thunderstorm Light Thunderstorms and Rain
10:53 PM 75.2 °F - 66.2 °F 73% 29.98 in 10.0 mi Calm Calm - N/A Thunderstorm Unknown
11:13 PM 73.4 °F - 66.2 °F 78% 29.99 in 10.0 mi Calm Calm - N/A Rain , Thunderstorm Light Thunderstorms and Rain
11:33 PM 73.4 °F - 68.0 °F 83% 29.98 in 10.0 mi SSE 3.5 mph - N/A Rain Light Rain
11:53 PM 73.4 °F - 66.2 °F 78% 29.98 in 10.0 mi Calm Calm - N/A Thunderstorm Unknown